Location: Hastringsfeld
(50.9620°N, 10.4787°E)
Time: 05:29:06
(UTC+00:00)

Cosmos 1812 Rocket - Pass Details

Date: 26 September 2023
Orbit: 603 x 629 km, 82.5° (Epoch: 29 November)

Event Time Altitude Azimuth Distance (km) Brightness Sun altitude
Exits shadow 02:47:31 49° 305° (NW) 822 3.9 -22.4°
Drops below altitude 10° 02:51:29 10° 2° (N) 2,022 6.5 -21.8°
Sets 02:53:47 0° 7° (N) 2,933 7.5 -21.5°
